NIMBUS 2 DEB, 37891

Orbit data source: Space-Track

NIMBUS 2 DEB, 37891 is space debris in SSO originally from a launch on Sun, 15 May 1966 UTC launched from the Air Force Western Test Range (AFWTR). Debris objects in space refer to the collection of defunct objects orbiting the Earth. Examples of debris include non-operational satellites, rocket bodies, and fragments generated from explosions, collisions, or faulty payload assembly.

Loading next visibility...
Identifier
37891, 1966-040AW
Orbit
SSO
Country
Flag of USUS
Related business
Manufacturer
Unknown
Mission
Spacecraft
Bus & Motor
Unknown
Mass
Unknown
Launch date (UTC)
1966-05-15 (60 years ago)
Launch vehicle
Unknown
Launch site
Air Force Western Test Range (AFWTR)
Object type
Payload
Rocket body
Debris
Shape & HBR
Unknown shape, 0.1 m
Radar Cross Section
Small (<0.1 m²)

Expand to show TLE details & history
Last TLE update: 3 days ago

TLE from 3 days ago
0 NIMBUS 2 DEB
1 37891U 66040AW  26260.19127681  .00001425  00000-0  22772-2 0  9999
2 37891 100.5395 237.8035 0067179  30.8429 329.6623 13.50229367746328
Epoch: 2026-09-17T04:35Z
TLE epoch observation values (Epoch: 2026-09-17T04:35:26.316Z)
Latitude
-0.00003°
Longitude
172.8118°
Altitude
1,031.057 km
Speed
7.357 km/s
True Right ascension
15h 51m 12s
True Declination
0° 00' 00"
Sunlit
Object was in daylight at epoch
Visualization orbit readout
Latitude
Unknown
Longitude
Unknown
Altitude
Unknown
Speed
Unknown
Apparent Right ascension
Unknown
Apparent Declination
Unknown
Sunlit
N/A
Visualization observer readout
Local Sidereal Time
18:24:00
Azimuth
Unknown
Elevation
Unknown
Doppler factor
Unknown
Orbital elements
Apogee altitude
1,118.788 km
Perigee altitude
1,018.733 km
Semi-major axis
7,446.898 km
Eccentricity
0.00672
Inclination
100.5395°
RAAN
237.8035°
Arg. of periapsis
30.8429°
True anomaly
329.27064°
Mean anomaly
329.6623°
Eccentric anomaly
329.46675°
Mean motion
3.37738 °/min
Orbital period
106.59 mins
BSTAR
0.0022772
Loading maneuver chart data...
Computing Atmospheric mass density...
Loading historical data...
Loading historical data...
Loading historical data...
Loading historical data...
Loading historical data...
Loading historical data...
Loading historical data...

Documentation

Showing up to 5 results
|